APSTAR-6C

Last updated on Wed Nov 20 2024 00:02:42 GMT+0000 (Coordinated Universal Time)

1 43450U 18041A 24323.82094972 -.00000315 00000+0 00000+0 0 9993 2 43450 0.0308 344.3786 0004216 291.8046 211.7210 1.00272232 24040
UTC large
Height (km)
Speed (km/s)
/
Latitude / Longitude
Inclination (degrees)
Orbital Period (minutes)
Azimuth
Elevation
Range (km)
Doppler Factor

Next 0 passes for location: London (51.5072 / 0.1276)

Sorry there are no passes over London.